Hourly Weather Roundup
Issued by NWS Central Illinois

Home | Current Version | Previous Version | Text Only | Print | Product List | Glossary On
Versions: 1 2 3 4 5 6 7 8 9 10 11 12 13 14 15 16 17 18 19 20 21 22 23 24 25 26 27 28 29 30 31 32 33 34 35 36 37 38 39 40 41 42 43 44 45 46 47 48 49 50
000
NZUS43 KILX 190410
HWRILX

AREA WEATHER ROUNDUP
NATIONAL WEATHER SERVICE, LINCOLN IL
1100 PM CDT THU SEP 18 2014


CITY           SKY/WX    TMP DP  RH WIND       PRES   REMARKS
BLOOMINGTON    CLEAR     53  49  86 E10       30.13S
CHAMPAIGN      CLEAR     53  48  83 E7        30.12S
DECATUR        CLEAR     52  46  80 E5        30.11S
FLORA          CLEAR     58  53  85 NE3       30.10S
GALESBURG      CLEAR     56  49  76 E3        30.10S
JACKSONVILLE   CLEAR     55  51  85 E3        30.10R
LACON          CLEAR     55  51  84 E7        30.12R
LAWRENCEVILLE  CLEAR     54  52  93 NE5       30.10S
LITCHFIELD     CLEAR     57  53  86 E5        30.08S
$$


CITY           SKY/WX    TMP DP  RH WIND       PRES   REMARKS
LINCOLN        CLEAR     52  48  87 CALM      30.09R
MACOMB         CLEAR     53  50  90 E6        30.11R
MATTOON        CLEAR     56  50  80 CALM      30.10S
MT CARMEL AP   CLEAR     55  52  88 CALM      30.10R
OLNEY-NOBLE AP CLEAR     52  52 100 CALM      30.10S
PARIS          CLEAR     52  51  96 E3        30.12S
PEORIA         CLEAR     60  50  69 E9        30.12R
PONTIAC        CLEAR     57  55  94 E5        30.13S FOG
RANTOUL        CLEAR     57  49  75 E5        30.13S
ROBINSON       FOG       51  51  98 CALM      30.12R VSB 3/4
SPRINGFIELD    CLEAR     55  48  77 E5        30.09S
TAYLORVILLE    CLEAR     55  46  71 E7        30.09S
$$

...REGIONAL REPORTS...


CITY           SKY/WX    TMP DP  RH WIND       PRES   REMARKS
CHICAGO O`HARE PTCLDY    57  53  86 NE5       30.16R
KANKAKEE       CLEAR     55  54  97 NE3       30.15S FOG
MOLINE         CLEAR     56  49  77 E6        30.10S
MOUNT VERNON   CLEAR     54  50  87 N3        30.09S
PITTSFIELD     CLEAR     57  54  89 CALM      30.09S
QUINCY         CLEAR     56  53  90 E6        30.08R
ROCKFORD       CLEAR     54  51  90 E3        30.18R
$$


CITY           SKY/WX    TMP DP  RH WIND       PRES   REMARKS
BURLINGTON     CLEAR     60  51  72 E6        30.09R
CEDAR RAPIDS   CLEAR     55  51  86 E5        30.08S
DES MOINES     CLEAR     63  56  78 SE9       30.04F
KIRKSVILLE     CLEAR     57  53  86 E5        30.07S
OTTUMWA        CLEAR     55  51  86 SE6       30.07S
ST LOUIS       PTCLDY    62  54  74 E6        30.08R
$$


CITY           SKY/WX    TMP DP  RH WIND       PRES   REMARKS
TERRE HAUTE    CLEAR     50  48  93 NE3       30.12R
EVANSVILLE     CLEAR     60  53  77 N5        30.09R
INDIANAPOLIS   CLEAR     60  49  66 E7        30.13R
LAFAYETTE      CLEAR     55  50  83 CALM      30.13S
MADISON        PTCLDY    53  51  93 SE6       30.15S
MILWAUKEE      CLEAR     53  50  89 CALM      30.17S
$$





USA.gov is the U.S. government's official web portal to all federal, state and local government web resources and services.